EN

Hourly Weather Topily

Today, 14 April, Wednesday

Time Temperature Precipitation Wind Pressure Humidity
00:00 +12°C° 0 mm 4 mps 749 mmHg 56%
01:00 +11°C° 0 mm 4 mps 749 mmHg 60%
02:00 +10°C° 0 mm 3 mps 749 mmHg 63%
03:00 +10°C° 0 mm 3 mps 749 mmHg 67%
04:00 +9°C° 0 mm 3 mps 749 mmHg 69%
05:00 +9°C° 0 mm 3 mps 749 mmHg 70%
06:00 +8°C° 0 mm 3 mps 748 mmHg 72%
07:00 +10°C° 0 mm 3 mps 748 mmHg 66%
08:00 +11°C° 0 mm 4 mps 748 mmHg 60%
09:00 +13°C° 0 mm 4 mps 748 mmHg 53%
10:00 +14°C° 0 mm 4 mps 748 mmHg 46%
11:00 +16°C° 0 mm 5 mps 748 mmHg 40%
12:00 +17°C° 0 mm 5 mps 747 mmHg 33%
13:00 +19°C° 0 mm 5 mps 747 mmHg 31%
14:00 +20°C° 0 mm 5 mps 747 mmHg 28%
15:00 +20°C° 0 mm 6 mps 746 mmHg 25%
16:00 +20°C° 0 mm 5 mps 746 mmHg 28%
17:00 +19°C° 0 mm 4 mps 746 mmHg 31%
18:00 +18°C° 0 mm 3 mps 746 mmHg 34%
19:00 +17°C° 0 mm 3 mps 746 mmHg 38%
20:00 +16°C° 0 mm 3 mps 746 mmHg 43%
21:00 +13°C° 0 mm 3 mps 746 mmHg 47%
22:00 +12°C° 0 mm 3 mps 745 mmHg 50%
23:00 +12°C° 0 mm 3 mps 745 mmHg 53%

Tomorrow, 15 April, Thursday

Time Temperature Precipitation Wind Pressure Humidity
00:00 +11°C° 0 mm 3 mps 745 mmHg 56%
01:00 +11°C° 0 mm 3 mps 745 mmHg 58%
02:00 +10°C° 0 mm 3 mps 745 mmHg 59%
03:00 +10°C° 0 mm 3 mps 745 mmHg 60%
04:00 +9°C° 0 mm 3 mps 745 mmHg 62%
05:00 +9°C° 0 mm 3 mps 744 mmHg 64%
06:00 +8°C° 0 mm 2 mps 744 mmHg 66%
07:00 +10°C° 0 mm 3 mps 744 mmHg 63%
08:00 +11°C° 0 mm 3 mps 744 mmHg 59%
09:00 +12°C° 0 mm 3 mps 744 mmHg 56%
10:00 +14°C° 0 mm 3 mps 744 mmHg 51%
11:00 +15°C° 0 mm 4 mps 744 mmHg 47%
12:00 +18°C° 0 mm 4 mps 744 mmHg 43%
13:00 +18°C° 0 mm 4 mps 744 mmHg 40%
14:00 +19°C° 0 mm 4 mps 744 mmHg 38%
15:00 +20°C° 0 mm 4 mps 743 mmHg 35%
16:00 +19°C° 0 mm 4 mps 743 mmHg 38%
17:00 +18°C° 0 mm 3 mps 743 mmHg 42%
18:00 +18°C° 0 mm 3 mps 743 mmHg 45%
19:00 +17°C° 0 mm 3 mps 743 mmHg 50%
20:00 +14°C° 0 mm 3 mps 744 mmHg 56%
21:00 +13°C° 0 mm 3 mps 744 mmHg 61%
22:00 +13°C° 0 mm 3 mps 744 mmHg 63%
23:00 +13°C° 0 mm 2 mps 744 mmHg 65%

Day after tomorrow, 16 April, Friday

Time Temperature Precipitation Wind Pressure Humidity
00:00 +13°C° 0 mm 2 mps 744 mmHg 67%
01:00 +12°C° 0 mm 2 mps 744 mmHg 69%
02:00 +12°C° 0 mm 2 mps 744 mmHg 72%
03:00 +10°C° 0 mm 2 mps 744 mmHg 75%
04:00 +10°C° 0 mm 2 mps 744 mmHg 77%
05:00 +9°C° 0 mm 3 mps 744 mmHg 79%
06:00 +9°C° 0 mm 3 mps 745 mmHg 81%
07:00 +10°C° 0 mm 3 mps 745 mmHg 77%
08:00 +11°C° 0 mm 3 mps 745 mmHg 74%
09:00 +11°C° 0 mm 4 mps 745 mmHg 70%
10:00 +13°C° 0 mm 4 mps 746 mmHg 66%
11:00 +14°C° 0 mm 4 mps 746 mmHg 62%
12:00 +15°C° 0 mm 4 mps 746 mmHg 57%
13:00 +17°C° 0 mm 4 mps 746 mmHg 54%
14:00 +16°C° 0 mm 5 mps 746 mmHg 51%
15:00 +17°C° 0 mm 5 mps 746 mmHg 48%
16:00 +16°C° 0 mm 5 mps 746 mmHg 51%
17:00 +16°C° 0 mm 5 mps 746 mmHg 54%
18:00 +16°C° 0 mm 5 mps 746 mmHg 57%
19:00 +14°C° 0.5 mm 6 mps 746 mmHg 64%
20:00 +13°C° 0.5 mm 6 mps 746 mmHg 71%
21:00 +11°C° 0.5 mm 7 mps 747 mmHg 77%
22:00 +10°C° 0.1 mm 6 mps 747 mmHg 80%
23:00 +9°C° 0.1 mm 6 mps 747 mmHg 83%

17 April, Saturday

Time Temperature Precipitation Wind Pressure Humidity
00:00 +8°C° 0.1 mm 6 mps 747 mmHg 86%
01:00 +8°C° 0.1 mm 5 mps 747 mmHg 87%
02:00 +7°C° 0.1 mm 5 mps 747 mmHg 89%
03:00 +7°C° 0.1 mm 5 mps 747 mmHg 91%
04:00 +6°C° 0 mm 5 mps 748 mmHg 91%
05:00 +6°C° 0 mm 5 mps 748 mmHg 91%
06:00 +5°C° 0 mm 6 mps 748 mmHg 91%
07:00 +7°C° 0 mm 6 mps 748 mmHg 86%
08:00 +8°C° 0 mm 7 mps 748 mmHg 80%
09:00 +9°C° 0 mm 7 mps 748 mmHg 74%
10:00 +10°C° 0 mm 8 mps 748 mmHg 69%
11:00 +11°C° 0 mm 8 mps 748 mmHg 64%
12:00 +13°C° 0 mm 8 mps 748 mmHg 60%
13:00 +13°C° 0 mm 8 mps 748 mmHg 57%
14:00 +15°C° 0 mm 8 mps 748 mmHg 54%
15:00 +16°C° 0 mm 8 mps 748 mmHg 51%
16:00 +15°C° 0.1 mm 8 mps 748 mmHg 53%
17:00 +15°C° 0.1 mm 8 mps 748 mmHg 55%
18:00 +13°C° 0.1 mm 8 mps 748 mmHg 57%
19:00 +12°C° 0 mm 8 mps 748 mmHg 57%
20:00 +11°C° 0 mm 7 mps 749 mmHg 57%
21:00 +10°C° 0 mm 7 mps 749 mmHg 57%
22:00 +9°C° 0 mm 7 mps 749 mmHg 57%
23:00 +8°C° 0 mm 6 mps 749 mmHg 57%

18 April, Sunday

Time Temperature Precipitation Wind Pressure Humidity
00:00 +7°C° 0 mm 6 mps 749 mmHg 57%
01:00 +7°C° 0 mm 6 mps 750 mmHg 57%
02:00 +7°C° 0 mm 6 mps 750 mmHg 58%
03:00 +5°C° 0 mm 6 mps 750 mmHg 58%
04:00 +6°C° 0 mm 5 mps 750 mmHg 60%
05:00 +6°C° 0 mm 5 mps 750 mmHg 61%
06:00 +5°C° 0 mm 5 mps 750 mmHg 62%
07:00 +6°C° 0 mm 5 mps 750 mmHg 61%
08:00 +5°C° 0 mm 6 mps 751 mmHg 59%
09:00 +5°C° 0 mm 6 mps 751 mmHg 58%
10:00 +8°C° 0 mm 6 mps 751 mmHg 53%
11:00 +9°C° 0 mm 6 mps 751 mmHg 48%
12:00 +10°C° 0 mm 6 mps 751 mmHg 44%
13:00 +11°C° 0 mm 6 mps 751 mmHg 41%
14:00 +13°C° 0 mm 6 mps 751 mmHg 38%
15:00 +14°C° 0 mm 6 mps 751 mmHg 35%
16:00 +13°C° 0 mm 6 mps 751 mmHg 37%
17:00 +13°C° 0 mm 5 mps 751 mmHg 39%
18:00 +13°C° 0 mm 5 mps 751 mmHg 40%
19:00 +10°C° 0 mm 5 mps 751 mmHg 45%
20:00 +10°C° 0 mm 4 mps 751 mmHg 50%
21:00 +8°C° 0 mm 4 mps 751 mmHg 55%
22:00 +8°C° 0 mm 4 mps 751 mmHg 59%
23:00 +7°C° 0 mm 5 mps 752 mmHg 62%

19 April, Monday

Time Temperature Precipitation Wind Pressure Humidity
00:00 +6°C° 0 mm 5 mps 752 mmHg 65%
01:00 +6°C° 0 mm 4 mps 752 mmHg 68%
02:00 +5°C° 0 mm 4 mps 752 mmHg 70%
03:00 +5°C° 0 mm 4 mps 752 mmHg 72%
04:00 +5°C° 0 mm 4 mps 752 mmHg 75%
05:00 +4°C° 0 mm 4 mps 753 mmHg 77%
06:00 +4°C° 0 mm 4 mps 753 mmHg 80%
07:00 +5°C° 0 mm 4 mps 753 mmHg 74%
08:00 +6°C° 0 mm 5 mps 753 mmHg 68%
09:00 +8°C° 0 mm 6 mps 753 mmHg 62%
10:00 +9°C° 0 mm 6 mps 753 mmHg 58%
11:00 +10°C° 0 mm 6 mps 753 mmHg 55%
12:00 +11°C° 0 mm 6 mps 753 mmHg 51%
13:00 +11°C° 0 mm 6 mps 753 mmHg 51%
14:00 +10°C° 0 mm 6 mps 753 mmHg 50%
15:00 +10°C° 0 mm 6 mps 753 mmHg 50%
16:00 +10°C° 0 mm 5 mps 754 mmHg 51%
17:00 +9°C° 0 mm 5 mps 754 mmHg 52%
18:00 +9°C° 0 mm 5 mps 754 mmHg 52%
19:00 +8°C° 0 mm 5 mps 754 mmHg 53%
20:00 +6°C° 0 mm 5 mps 754 mmHg 54%
21:00 +5°C° 0 mm 4 mps 754 mmHg 55%
22:00 +4°C° 0 mm 4 mps 754 mmHg 55%
23:00 +4°C° 0 mm 4 mps 754 mmHg 56%
Show more

We Need Your Consent

Meteoprog and our Service Providers may store and access personal data such as cookies, device identifiers or other similar technologies on your device and process such data to personalise content and ads, as well as provide social media features and to analyse the traffic.

  • Store and/or access information on your device

    Cookies, device identifiers or other information can be stored or accessed on your device for the purposes indicated above.

  • Personalised ads and content, ad and content measurement, audience insights, and products development

    Ads and content can be personalised based on a profile. More data can be added to better personalise ads and content. Ad and content performance can be measured. Insights about the audience who saw the ads and content can be derived. Such data can be used to develop or improve user’s experience, systems and software.

By clicking ‘I Agree’ you will allow the use of indicated cookies, device identifiers, web beacons or other similar technologies. Your settings can be changed in the browser on your device.

For certain purposes, legitimate interests may be relied on, rather than consent. You can read more about this in our Privacy and Cookie Policy.